Location: Newark
(52.9447°N, 5.7817°E)
Time: 00:46:01
(UTC+00:00)

ISS - Pass Details

Date: 27 September 2020
Orbit: 417 x 420 km, 51.6° (Epoch: 27 October)

Event Time Altitude Azimuth Distance (km) Brightness Sun altitude
Rises 19:01:45 0° 272° (W) 2,367 1.6 -15.6°
Reaches altitude 10° 19:03:51 10° 270° (W) 1,503 0.2 -15.9°
Maximum altitude 19:07:12 68° 187° (S) 457 -3.7 -16.4°
Enters shadow 19:08:06 44° 121° (ESE) 593 -3.5 -16.5°
